Wind_Speed
72 65 62 68 70 66 60 55 58 60 59 59 58 49 51 52 57 62 65 72 70 71 78 81 61 52 55 52 48 42 40 38 30 29 30 25 22 27 23 28 29 30 26 27
77 60 68 72 67 62 58 57 60 60 58 54 47 48 53 54 60 65 66 69 66 78 74 57 53 53 53 47 43 37 37 30 27 28 25 19 20 23 25 29 31 29 29 23
74 68 72 71 66 60 58 56 55 53 56 48 45 50 51 58 63 66 63 65 71 62 59 56 53 53 48 41 35 35 29 26 26 26 18 15 18 20 23 26 29 29 25 20
71 70 68 64 59 55 53 52 53 53 52 48 50 56 59 57 64 65 66 63 52 49 49 53 50 43 39 34 32 28 24 25 25 20 11 11 11 18 18 25 29 22 18 17
56 57 57 66 55 59 56 60 55 52 53 57 59 61 64 61 65 66 55 45 44 45 50 49 39 36 33 29 26 22 24 25 20 13 10 7 10 15 20 25 24 19 22 18
59 61 62 55 58 53 59 50 52 55 53 52 61 60 60 58 55 54 45 42 35 37 37 38 35 29 27 23 20 22 24 23 16 13 7 4 7 18 23 23 21 21 24 21
59 58 58 58 59 56 55 54 49 50 51 57 58 55 56 53 52 38 34 30 32 29 28 28 24 23 20 18 20 22 22 19 14 7 7 1 9 15 26 22 19 21 22 17
63 62 59 63 60 63 61 57 53 55 58 61 59 52 57 46 41 26 28 25 22 26 22 21 21 18 16 17 19 20 21 14 12 3 9 2 7 15 24 28 17 19 20 6
68 61 62 64 67 66 60 54 59 56 54 53 53 50 52 39 24 24 17 12 17 21 19 18 18 14 16 17 18 18 19 11 10 4 7 2 7 13 25 29 17 20 15 4
77 72 72 73 75 68 60 63 61 54 50 51 51 49 41 23 18 19 11 12 14 20 17 15 17 11 14 13 16 16 19 10 8 7 7 6 7 14 23 29 19 17 13 8
77 80 81 82 67 64 65 62 59 54 50 48 47 37 22 23 18 15 9 11 13 19 18 15 14 10 9 11 15 15 18 11 6 7 8 8 6 10 21 27 18 15 15 10
71 74 82 76 72 73 71 70 66 59 52 56 56 28 26 21 16 12 9 8 12 17 20 18 13 10 10 11 15 15 16 11 6 7 13 11 7 8 16 25 21 10 14 18
84 71 72 73 78 78 71 60 52 54 52 39 28 31 25 21 14 12 6 6 12 16 21 20 14 13 11 11 14 14 15 11 4 14 15 7 9 10 17 21 23 10 17 19
81 73 62 57 50 52 49 42 39 36 29 26 31 30 25 22 15 7 7 5 13 16 20 23 16 14 16 12 13 13 14 10 3 16 17 8 4 9 14 17 23 10 15 18
80 70 63 58 55 52 44 37 31 29 34 31 38 29 27 21 14 7 8 5 11 16 19 22 24 16 16 11 13 12 14 12 1 11 19 14 11 8 10 14 20 12 7 12
81 71 68 67 60 52 41 37 30 36 41 43 35 27 27 21 13 10 6 3 12 14 18 20 24 24 16 13 12 13 13 13 5 3 18 16 14 8 10 7 10 14 7 4
85 78 75 65 62 58 47 37 34 34 39 38 29 31 29 21 13 10 4 6 8 11 17 17 21 25 19 16 13 13 13 13 8 3 13 23 19 13 7 5 8 8 12 14
87 84 77 66 69 64 41 40 39 38 38 37 36 36 30 24 16 11 8 7 8 10 13 16 19 22 23 15 13 12 13 12 11 8 3 21 21 16 16 9 4 2 8 7
88 85 78 74 72 60 49 42 38 41 38 36 39 39 34 27 18 16 11 9 9 8 10 15 17 19 22 20 12 10 8 10 10 10 9 7 23 17 17 18 13 8 7 4
93 88 85 76 78 63 52 49 46 48 44 43 43 43 37 30 22 22 12 11 9 9 10 13 14 16 18 19 15 10 7 7 8 6 6 6 13 23 17 19 18 19 15 10
98 93 87 81 80 68 59 59 57 51 37 47 48 49 44 36 31 25 14 13 12 9 10 13 13 16 18 17 19 13 9 5 5 5 3 3 2 6 21 19 17 16 15 16
100 96 91 89 82 78 74 74 67 61 51 50 53 54 49 42 35 25 18 14 16 8 11 12 15 14 16 17 16 18 10 8 2 1 2 1 1 4 7 11 15 15 16 19
98 99 93 94 89 84 82 78 66 63 58 53 54 58 53 46 36 28 22 18 18 12 11 11 15 14 14 16 16 15 16 9 3 2 1 0 2 4 5 7 7 8 11 13
96 98 99 95 91 86 82 77 69 67 62 59 58 56 52 49 39 34 24 21 20 18 14 14 15 16 13 15 16 16 15 15 10 6 4 4 3 4 7 8 8 9 11 12
98 95 98 97 92 85 83 81 77 70 68 61 59 55 52 51 45 38 30 25 24 23 17 21 18 18 15 14 16 18 17 15 15 11 8 8 7 7 7 8 10 11 11 11
97 93 100 98 94 88 82 83 80 72 66 63 58 56 53 51 50 42 36 29 28 26 23 26 22 21 18 16 17 17 17 16 14 15 13 11 11 11 11 10 11 10 12 14
Wind_Direction
250 251 253 252 252 255 261 264 267 270 273 276 278 280 279 278 278 284 293 301 308 309 309 304 306 311 315 311 307 310 308 313 313 313 312 308 285 295 307 306 312 313 316 301
250 253 249 248 254 259 265 266 266 270 272 276 277 275 275 277 279 290 297 301 307 304 310 307 310 314 309 307 307 309 312 313 316 315 311 299 288 303 301 312 311 314 311 310
248 245 249 254 258 262 263 267 270 272 276 278 274 273 278 277 287 290 300 306 306 308 306 308 312 306 308 307 310 310 316 317 322 315 309 287 296 302 316 322 326 322 319 314
242 246 250 252 256 259 261 254 257 259 270 270 266 272 277 285 287 290 298 311 305 299 302 304 306 307 309 312 311 315 322 324 320 312 292 285 293 302 322 338 334 333 331 325
240 240 241 248 245 243 245 253 251 254 257 259 264 268 274 282 290 296 306 304 293 294 298 305 307 308 310 313 314 326 327 327 314 307 283 276 302 316 337 348 342 346 346 346
239 240 248 249 248 248 246 251 248 250 257 264 266 269 275 286 300 304 301 298 293 299 298 298 304 310 317 314 329 331 331 330 304 299 261 264 332 345 349 347 346 346 358 352
237 237 237 240 241 244 249 249 250 252 257 261 267 276 282 297 302 296 288 282 289 306 309 302 310 319 320 326 335 328 334 330 318 296 194 148 357 333 1 354 351 350 357 356
226 231 236 238 239 241 242 246 250 255 257 259 266 278 284 298 295 270 273 278 305 314 306 311 313 324 329 329 332 333 344 331 342 284 178 30 324 350 8 7 355 1 360 36
228 229 234 236 237 239 240 242 246 248 257 265 270 279 283 286 265 262 271 303 321 326 324 314 324 338 340 324 334 345 349 339 335 240 171 129 344 358 19 12 9 1 5 34
228 226 228 230 231 234 237 239 242 252 263 266 269 281 285 250 244 251 281 325 322 351 331 327 344 347 348 338 347 354 353 347 322 213 155 85 340 10 21 14 22 20 22 32
228 227 231 231 234 239 242 248 251 257 263 269 275 276 233 229 234 240 300 327 344 352 352 347 351 355 4 352 358 360 355 343 313 219 173 72 338 2 27 19 35 37 41 62
233 230 233 234 234 237 240 243 249 259 267 266 269 242 215 221 229 233 280 342 358 3 10 8 2 20 6 359 4 7 356 345 305 223 150 90 18 15 31 30 32 44 44 53
228 230 236 235 236 240 245 257 262 264 266 265 241 211 208 215 221 230 279 340 17 18 20 19 12 37 17 6 2 8 4 348 321 185 167 156 53 16 44 26 29 65 59 60
228 229 233 245 249 245 243 244 247 248 242 210 206 206 202 213 216 207 261 11 23 23 25 24 11 32 26 9 360 8 12 358 304 197 187 167 141 58 47 31 39 69 50 62
224 225 228 234 240 240 238 239 229 220 212 198 211 193 204 212 211 217 248 38 28 25 26 22 22 28 34 20 12 21 18 9 322 225 204 213 157 90 74 58 49 66 60 43
222 219 221 227 230 234 236 234 221 220 211 203 207 192 204 211 210 227 223 36 18 17 26 17 23 26 32 32 21 27 27 21 4 269 217 204 183 161 107 92 57 53 90 39
223 220 219 221 229 228 222 229 227 217 220 214 209 199 207 206 206 237 261 343 357 14 20 13 20 24 28 39 35 29 31 30 11 319 221 218 214 196 199 134 83 68 59 55
222 223 221 215 224 227 215 222 225 220 216 219 217 209 208 207 204 223 263 284 343 11 17 10 17 22 19 29 42 37 33 25 27 9 317 216 225 225 223 212 227 12 72 62
220 222 222 217 227 225 217 216 223 229 219 221 219 223 208 201 207 218 246 281 322 354 17 5 12 16 19 15 24 34 45 31 24 18 13 222 218 232 230 222 234 257 294 86
214 218 220 217 225 223 216 216 214 224 219 217 219 224 223 204 199 223 218 267 294 334 3 6 1 12 17 15 13 23 32 49 33 29 18 18 227 234 240 235 246 242 259 257
213 214 218 218 221 216 214 217 214 213 216 215 213 223 223 219 215 221 210 254 280 317 337 358 350 360 3 12 13 14 21 21 33 44 30 360 304 233 236 246 247 254 250 248
211 212 215 217 215 210 210 213 211 206 209 212 208 217 225 223 217 209 212 233 264 299 311 335 339 345 351 356 6 10 7 14 6 27 62 322 301 264 239 240 252 255 256 248
209 210 213 218 215 210 211 217 211 208 203 207 214 216 219 222 218 218 211 222 250 264 285 309 322 338 337 341 347 358 1 359 342 295 267 203 263 256 263 248 232 243 243 239
209 208 211 215 217 213 210 216 214 211 207 204 211 218 220 225 220 221 214 224 243 260 281 292 305 324 322 327 333 336 347 358 349 304 267 275 273 261 250 254 255 243 237 238
210 205 208 213 215 215 212 213 216 214 209 207 212 214 221 229 227 221 217 217 237 255 270 279 291 306 310 316 320 323 328 344 348 333 301 270 270 270 263 259 255 259 256 249
212 205 207 211 214 214 212 214 218 216 213 206 212 217 223 230 238 230 224 222 237 251 263 270 280 290 297 303 304 313 315 325 340 337 317 287 273 268 267 269 268 261 257 257
Height
10729 10744 10753 10744 10745 10754 10762 10768 10766 10762 10764 10768 10767 10770 10767 10767 10763 10760 10754 10746 10737 10729 10723 10715 10708 10701 10692 10686 10681 10674 10667 10661 10655 10650 10643 10639 10635 10632 10629 10622 10617 10611 10603 10597
10717 10743 10726 10723 10736 10746 10752 10753 10752 10749 10751 10760 10757 10759 10758 10760 10756 10753 10746 10737 10730 10719 10713 10704 10698 10691 10685 10680 10674 10667 10661 10655 10650 10645 10639 10636 10633 10629 10623 10619 10613 10606 10599 10594
10707 10712 10707 10717 10730 10736 10736 10739 10734 10737 10741 10750 10748 10747 10750 10750 10746 10746 10739 10728 10718 10708 10702 10699 10692 10685 10679 10673 10666 10660 10655 10650 10646 10640 10636 10633 10631 10627 10622 10616 10609 10602 10595 10591
10691 10695 10700 10706 10715 10721 10727 10723 10727 10730 10734 10740 10740 10738 10740 10745 10737 10738 10730 10718 10710 10703 10696 10693 10686 10679 10673 10667 10661 10656 10651 10647 10641 10637 10634 10632 10630 10626 10621 10613 10605 10598 10593 10589
10686 10680 10682 10690 10703 10705 10715 10711 10717 10723 10729 10729 10730 10732 10732 10736 10730 10728 10720 10714 10705 10700 10692 10687 10679 10674 10668 10662 10657 10652 10648 10644 10638 10635 10633 10632 10630 10625 10619 10611 10604 10597 10592 10587
10664 10664 10673 10685 10686 10698 10690 10706 10709 10713 10719 10724 10718 10723 10728 10727 10724 10717 10713 10706 10701 10694 10688 10681 10674 10668 10662 10657 10653 10649 10645 10640 10636 10633 10632 10632 10629 10624 10617 10611 10603 10596 10593 10588
10647 10656 10662 10667 10676 10683 10687 10692 10700 10706 10711 10711 10710 10717 10719 10716 10717 10711 10706 10702 10696 10689 10681 10675 10668 10663 10658 10654 10650 10647 10642 10638 10634 10631 10632 10631 10629 10623 10617 10610 10604 10598 10594 10588
10630 10640 10652 10657 10665 10668 10675 10679 10690 10696 10700 10701 10709 10708 10708 10707 10709 10703 10702 10698 10691 10684 10677 10669 10664 10660 10656 10651 10649 10644 10640 10637 10633 10632 10633 10632 10630 10624 10618 10610 10605 10600 10597 10592
10622 10633 10638 10644 10646 10649 10663 10679 10673 10682 10690 10695 10700 10698 10700 10701 10704 10699 10697 10692 10687 10679 10671 10667 10661 10656 10652 10649 10646 10642 10639 10635 10633 10634 10635 10634 10630 10626 10619 10612 10606 10602 10599 10595
10607 10615 10617 10619 10623 10641 10659 10657 10667 10679 10684 10683 10689 10692 10693 10694 10696 10696 10692 10688 10684 10675 10669 10663 10658 10653 10650 10648 10644 10641 10638 10635 10634 10634 10636 10635 10631 10627 10621 10615 10608 10605 10602 10599
10579 10597 10593 10598 10631 10643 10647 10653 10662 10668 10673 10674 10681 10684 10687 10689 10690 10691 10689 10685 10679 10674 10666 10659 10656 10651 10649 10647 10643 10640 10637 10635 10634 10634 10637 10636 10632 10629 10624 10618 10613 10611 10608 10606
10579 10579 10583 10610 10615 10621 10629 10640 10650 10659 10665 10669 10673 10678 10680 10684 10685 10687 10685 10681 10677 10672 10663 10657 10654 10650 10648 10645 10642 10639 10637 10635 10634 10635 10638 10637 10633 10631 10625 10622 10618 10616 10615 10612
10545 10575 10581 10595 10604 10614 10633 10644 10650 10652 10655 10663 10667 10668 10676 10679 10679 10681 10681 10678 10674 10668 10661 10656 10654 10649 10647 10644 10641 10639 10637 10635 10634 10635 10638 10638 10636 10632 10628 10625 10622 10620 10620 10617
10544 10563 10585 10598 10613 10615 10624 10632 10638 10642 10648 10655 10658 10665 10671 10673 10675 10676 10678 10675 10670 10666 10660 10656 10652 10648 10646 10644 10640 10638 10636 10635 10633 10635 10638 10638 10638 10635 10632 10630 10627 10624 10624 10623
10537 10560 10579 10584 10596 10605 10617 10624 10630 10636 10640 10650 10648 10661 10665 10668 10670 10672 10674 10670 10668 10664 10660 10655 10651 10647 10645 10644 10640 10637 10635 10634 10633 10634 10637 10639 10640 10638 10635 10635 10633 10631 10629 10628
10526 10551 10560 10567 10582 10596 10611 10618 10625 10628 10631 10637 10646 10657 10662 10665 10666 10667 10669 10667 10665 10664 10658 10655 10650 10647 10645 10644 10640 10638 10636 10635 10633 10633 10636 10639 10640 10640 10638 10638 10638 10637 10635 10634
10516 10531 10543 10564 10573 10582 10596 10612 10621 10626 10629 10635 10645 10651 10656 10660 10661 10662 10662 10663 10665 10662 10657 10655 10651 10647 10645 10643 10641 10639 10637 10636 10634 10633 10634 10638 10640 10641 10641 10641 10640 10641 10640 10639
10505 10516 10535 10556 10553 10565 10603 10605 10613 10620 10624 10630 10635 10644 10651 10655 10656 10657 10659 10661 10661 10659 10657 10655 10651 10648 10645 10643 10642 10639 10638 10637 10635 10633 10633 10635 10638 10640 10642 10643 10643 10643 10644 10643
10493 10504 10523 10536 10547 10570 10587 10597 10607 10611 10621 10625 10629 10634 10646 10651 10653 10654 10656 10657 10657 10658 10656 10654 10651 10649 10646 10644 10642 10640 10638 10638 10636 10635 10633 10632 10636 10639 10641 10643 10645 10646 10646 10647
10473 10485 10500 10526 10531 10561 10579 10584 10593 10595 10608 10617 10622 10626 10635 10646 10651 10649 10653 10653 10654 10654 10654 10652 10650 10648 10647 10645 10642 10640 10638 10638 10638 10636 10635 10634 10635 10638 10640 10643 10645 10646 10647 10648
10457 10471 10489 10508 10520 10549 10563 10567 10573 10586 10606 10604 10614 10617 10625 10636 10640 10643 10649 10648 10649 10651 10651 10651 10649 10647 10646 10645 10643 10641 10639 10638 10638 10638 10637 10636 10636 10636 10638 10640 10643 10644 10646 10646
10440 10460 10474 10487 10507 10522 10528 10531 10549 10567 10583 10589 10598 10606 10613 10623 10630 10639 10643 10644 10643 10646 10647 10649 10648 10646 10645 10644 10643 10641 10639 10637 10637 10637 10637 10637 10636 10636 10636 10638 10640 10641 10642 10643
10423 10442 10460 10472 10485 10502 10513 10524 10551 10559 10570 10580 10590 10596 10604 10611 10621 10629 10637 10639 10639 10642 10643 10645 10645 10645 10644 10643 10643 10641 10640 10637 10636 10636 10636 10636 10636 10636 10636 10637 10638 10638 10640 10641
10405 10428 10440 10455 10472 10489 10506 10523 10540 10552 10566 10573 10580 10590 10599 10606 10615 10621 10629 10633 10634 10635 10636 10640 10641 10642 10642 10642 10641 10641 10639 10638 10636 10634 10635 10635 10635 10636 10636 10636 10636 10637 10638 10638
10385 10413 10429 10440 10459 10480 10498 10508 10524 10540 10552 10568 10577 10586 10592 10595 10604 10612 10620 10625 10627 10628 10631 10632 10636 10638 10639 10639 10639 10639 10639 10637 10635 10634 10633 10633 10634 10634 10635 10635 10634 10635 10635 10637
10374 10398 10414 10431 10447 10466 10490 10500 10515 10530 10544 10560 10569 10578 10585 10588 10591 10600 10610 10618 10621 10622 10626 10626 10630 10633 10635 10636 10637 10638 10637 10635 10634 10633 10631 10631 10631 10632 10632 10632 10632 10632 10633 10633